CST,Max TemperatureF,Mean TemperatureF,Min TemperatureF,Max Dew PointF,MeanDew PointF,Min DewpointF,Max Humidity, Mean Humidity, Min Humidity, Max Sea Level PressureIn, Mean Sea Level PressureIn, Min Sea Level PressureIn, Max VisibilityMiles, Mean VisibilityMiles, Min VisibilityMiles, Max Wind SpeedMPH, Mean Wind SpeedMPH, Max Gust SpeedMPH,PrecipitationIn, CloudCover, Events, WindDirDegrees
2013-11-1,62,50,41,41,38,34,82,67,38,30.00,29.82,29.64,10,10,2,21,11,38,0.15,3,Rain-Thunderstorm,295
2013-11-2,57,47,37,39,34,30,86,66,35,30.21,30.13,30.01,10,10,10,13,9,22,0.00,1,,294
2013-11-3,59,46,35,38,34,31,85,59,40,30.13,29.97,29.82,10,10,10,29,13,38,0.00,0,,162
2013-11-4,60,54,48,46,42,39,80,65,55,30.10,29.95,29.82,10,10,10,20,12,28,0.00,5,,181
2013-11-5,59,49,37,57,49,36,100,93,74,30.10,29.97,29.81,10,6,1,18,7,32,0.37,8,Rain,111
2013-11-6,46,40,33,36,33,30,93,77,58,30.32,30.20,30.02,10,10,10,20,12,28,0.00,5,,305
2013-11-7,53,40,27,33,26,20,92,66,27,30.42,30.37,30.32,10,10,10,15,4,22,0.00,0,,301
2013-11-8,68,49,30,34,31,25,79,50,24,30.31,30.00,29.81,10,10,10,26,11,38,0.00,0,,182
2013-11-9,64,50,37,36,32,29,86,54,26,30.34,30.14,29.95,10,10,10,16,3,28,0.00,0,,323
2013-11-10,55,42,30,37,31,27,89,62,38,30.44,30.33,30.19,10,10,7,10,5,,0.00,2,,156
2013-11-11,50,37,21,46,31,11,97,75,60,30.77,30.37,30.13,10,9,3,22,11,31,0.00,4,,351
2013-11-12,33,22,12,12,9,5,84,59,31,30.94,30.82,30.68,10,10,10,10,6,,0.00,0,,300
2013-11-13,51,36,21,22,17,10,68,50,32,30.64,30.35,30.09,10,10,10,18,10,26,0.00,0,,184
2013-11-14,57,46,36,30,25,19,70,48,33,30.06,29.98,29.92,10,10,10,16,11,21,0.00,0,,210
2013-11-15,57,44,30,44,34,27,88,70,45,29.93,29.82,29.66,10,10,10,15,8,,0.00,0,,164
2013-11-16,73,62,50,55,46,34,89,66,36,29.63,29.44,29.34,10,10,10,30,15,41,0.00,3,,180
2013-11-17,62,50,37,55,37,29,93,60,29,30.08,29.60,29.25,10,10,10,31,12,41,0.00,1,,287
2013-11-18,57,42,28,32,27,23,92,60,28,30.30,30.21,30.10,10,10,10,12,7,,0.00,0,,243
2013-11-19,61,46,30,30,26,22,79,45,23,30.22,30.07,29.93,10,10,10,22,12,32,0.00,3,,161
2013-11-20,53,46,39,38,36,26,89,69,37,29.94,29.89,29.81,10,10,7,20,13,28,0.11,4,Rain-Thunderstorm,147
2013-11-21,41,34,25,37,29,21,93,88,82,30.54,30.24,29.95,10,6,2,23,11,33,0.03,7,Rain-Snow,350
2013-11-22,26,22,19,21,17,14,86,80,69,30.72,30.64,30.51,10,10,7,15,10,23,0.00,2,,323
2013-11-23,23,18,12,16,9,5,81,67,53,30.89,30.81,30.67,10,10,10,16,9,25,0.00,0,,7
2013-11-24,27,18,10,15,10,5,84,67,51,30.80,30.58,30.31,10,10,10,13,6,20,0.00,2,,175
2013-11-25,39,33,27,27,21,16,85,66,54,30.30,30.21,30.16,10,10,10,13,8,,0.00,4,,230
2013-11-26,36,28,17,24,17,9,88,67,42,30.45,30.34,30.22,10,10,10,22,10,32,0.00,1,,324
2013-11-27,34,22,10,16,11,7,84,62,38,30.47,30.33,30.13,10,10,10,14,7,23,0.00,0,,226
2013-11-28,36,28,21,20,18,15,81,66,48,30.53,30.36,30.14,10,10,10,16,8,24,0.00,0,,327
2013-11-29,48,32,16,27,22,14,92,67,43,30.53,30.38,30.20,10,10,10,15,5,23,0.00,0,,151
2013-11-30,54,41,28,33,29,23,92,66,45,30.18,30.12,30.07,10,10,2,8,4,,0.00,0,,196